STARLINK-4116, 53164

Orbit data source: Space-Track

STARLINK-4116, 53164 is a payload satellite owned by SpaceX/Seattle (US) in LEO that was launched on Sun, 17 Jul 2022 UTC via an FALCON 9 launch vehicle from the Air Force Eastern Test Range (AFETR). Payload-class satellites include a variety of spacecraft equipped with specific instruments for various scientific and technological missions. These include communications satellites like Starlink; space stations such as the ISS; scientific satellites like the Hubble; Earth observation satellites from companies like Planet Labs, Umbra, and HawkEye 360; GPS; miniature CubeSats for education and research; and military/defense satellites.

Loading next visibility...
Identifier
53164, 2022-083AJ
Orbit
LEO
Country
Flag of USUS
Related business
Manufacturer
SpaceX/Seattle
Mission
Operational Commercial Communications
Bus & Motor
STARLINK, Unknown motor
Mass
297 kg wet, ~275 kg dry
Launch date (UTC)
2022-07-17 (4 years ago)
Launch vehicle
FALCON 9
Launch site
Air Force Eastern Test Range (AFETR)
Object type
Payload
Rocket body
Debris
Shape & HBR
Box + 1 Pan, 10.1 m
Radar Cross Section
13.562 m², Large (>1 m²)

Expand to show TLE details & history
Last TLE update: 2 days ago

TLE from 2 days ago
0 STARLINK-4116
1 53164U 22083AJ  26170.97601034  .00000450  00000-0  46386-4 0  9990
2 53164  53.1605  64.8299 0001338  87.0714 273.0430 15.08840836216800
Epoch: 2026-06-19T23:25Z
TLE epoch observation values (Epoch: 2026-06-19T23:25:27.293Z)
Latitude
-0.00006°
Longitude
165.26887°
Altitude
540.583 km
Speed
7.593 km/s
True Right ascension
04h 19m 19s
True Declination
0° 00' 00"
Sunlit
Object was in daylight at epoch
Visualization orbit readout
Latitude
Unknown
Longitude
Unknown
Altitude
Unknown
Speed
Unknown
Apparent Right ascension
Unknown
Apparent Declination
Unknown
Sunlit
N/A
Visualization observer readout
Local Sidereal Time
21:29:06
Azimuth
Unknown
Elevation
Unknown
Doppler factor
Unknown
Orbital elements
Apogee altitude
540.921 km
Perigee altitude
539.069 km
Semi-major axis
6,918.132 km
Eccentricity
0.00013
Inclination
53.1605°
RAAN
64.8299°
Arg. of periapsis
87.0714°
True anomaly
273.02769°
Mean anomaly
273.043°
Eccentric anomaly
273.03534°
Mean motion
3.7719 °/min
Orbital period
95.44 mins
BSTAR
0.000046386
Loading maneuver chart data...
Computing Atmospheric mass density...
Loading historical data...
Loading historical data...
Loading historical data...
Loading historical data...
Loading historical data...
Loading historical data...
Loading historical data...

Documentation

Showing up to 5 results
|